Location: Aciu?a
(46.2833°N, 22.4500°E)
Time: 03:50:57
(UTC+00:00)

CZ-4 R/B - Pass Details

Date: 25 October 2021
Orbit: 531 x 595 km, 97.8° (Epoch: 30 November)

Event Time Altitude Azimuth Distance (km) Brightness Sun altitude
Exits shadow 18:01:08 - 199° (SSW) 2,223 4.5 -27.3°
Reaches altitude 10° 18:02:08 10° 206° (SSW) 1,862 4.1 -27.4°
Maximum altitude 18:05:37 27° 265° (W) 1,109 3.4 -28.0°
Drops below altitude 10° 18:09:10 10° 325° (NW) 1,907 4.6 -28.6°
Sets 18:11:37 0° 337° (NNW) 2,823 5.4 -29.0°
